This demonstration page uses our WeatherBlox Daily Observations layout. Learn more.

Left ArrowRight Arrow

38.20091, -84.87328

Hourly Observations for February 5, 2018

Temp ( °F °C ) Dew Point ( °F °C ) Humidity (%) Winds ( mph kmh ) Pressure ( in mb ) Visibility ( mi km ) Precip ( " mm )
12:40 am 00:40 Partly Cloudy 25 -3.9 14 -10 63 63 NNW 17 28 30.24 1024 10 16 0.00 0.00
12:53 am 00:53 Mostly Clear 24 -4.4 12 -11.1 60 60 NNW 16 26 30.21 1023 10 16 0.00 0.00
1:53 am 01:53 Clear 22 -5.6 10 -12.2 60 60 NW 9 15 30.23 1024 10 16 0.00 0.00
2:53 am 02:53 Partly Cloudy 21 -6.1 11 -11.7 65 65 N 5 7 30.24 1024 10 16 0.00 0.00
3:18 am 03:18 Mostly Cloudy 21 -6.1 12 -11.1 68 68 NNW 3 6 30.27 1025 10 16 0.00 0.00
3:53 am 03:53 Cloudy 22 -5.6 12 -11.1 66 66 NNW 9 15 30.26 1025 10 16 0.00 0.00
4:53 am 04:53 Cloudy 21 -6.1 12 -11.1 68 68 NW 8 13 30.29 1026 10 16 0.00 0.00
5:53 am 05:53 Cloudy 21 -6.1 10 -12.2 62 62 N 6 9 30.30 1026 10 16 0.00 0.00
6:53 am 06:53 Cloudy 20 -6.7 10 -12.2 65 65 WNW 5 7 30.31 1026 10 16 0.00 0.00
7:17 am 07:17 Cloudy 21 -6.1 10 -12.2 62 62 Calm 30.33 1027 10 16 0.00 0.00
7:53 am 07:53 Cloudy 21 -6.1 9 -12.8 59 59 Calm 30.32 1027 10 16 0.00 0.00
8:53 am 08:53 Cloudy 21 -6.1 9 -12.8 59 59 Calm 30.36 1028 9 14 0.00 0.03
9:53 am 09:53 Cloudy 22 -5.6 11 -11.7 63 63 VRB 3 6 30.38 1029 10 16 0.00 0.00
10:53 am 10:53 Cloudy 23 -5 12 -11.1 63 63 S 8 13 30.34 1027 10 16 0.00 0.00
11:53 am 11:53 Partly Cloudy 24 -4.4 12 -11.1 60 60 VRB 3 6 30.33 1027 10 16 0.00 0.00
12:48 pm 12:48 Mostly Cloudy 27 -3 14 -10 59 59 undefined N/A 30.33 1027 10 16 0.00 0.00
12:53 pm 12:53 Mostly Cloudy 26 -3.3 15 -9.4 63 63 SSW 10 17 30.30 1026 10 16 0.00 0.00
1:53 pm 13:53 Mostly Sunny 26 -3.3 15 -9.4 63 63 SSE 3 6 30.27 1025 10 16 0.00 0.00
2:12 pm 14:12 Mostly Cloudy 27 -2.8 14 -10 58 58 Calm 30.27 1025 10 16 0.00 0.00
2:22 pm 14:22 Partly Cloudy 28 -2.2 15 -9.4 58 58 VRB 5 7 30.27 1025 10 16 0.00 0.00
2:53 pm 14:53 Mostly Sunny 28 -2.2 15 -9.4 58 58 SW 6 9 30.24 1024 10 16 0.00 0.00
3:53 pm 15:53 Mostly Sunny 29 -1.7 16 -8.9 58 58 SSW 8 13 30.24 1024 10 16 0.00 0.00
4:53 pm 16:53 Mostly Sunny 29 -1.7 16 -8.9 58 58 ESE 7 11 30.23 1024 10 16 0.00 0.00
5:53 pm 17:53 Sunny 28 -2.2 16 -8.9 60 60 SE 8 13 30.20 1023 10 16 0.00 0.00
6:53 pm 18:53 Clear 28 -2.2 16 -8.9 60 60 SE 3 6 30.20 1023 10 16 0.00 0.00
7:53 pm 19:53 Clear 27 -2.8 17 -8.3 66 66 Calm 30.20 1023 10 16 0.00 0.00
8:53 pm 20:53 Clear 24 -4.4 16 -8.9 71 71 Calm 30.19 1022 10 16 0.00 0.00
9:53 pm 21:53 Clear 26 -3.3 19 -7.2 75 75 Calm 30.17 1022 10 16 0.00 0.00
10:53 pm 22:53 Mostly Clear 27 -2.8 19 -7.2 72 72 E 3 6 30.15 1021 10 16 0.00 0.00
11:53 pm 23:53 Clear 27 -2.8 18 -7.8 69 69 Calm 30.16 1021 10 16 0.00 0.00

Powered by AerisWeather